This is the latest recevied weather packets stored in our database for station/object DH2PG-6. If no packets are shown the sender has not sent any weather packets the latest 10 day(s).
| Time | Temp. | Humidity | Pressure | Rain* | Wind** | Luminosity | Snow |
|---|---|---|---|---|---|---|---|
| 1788252078 | 16.11° C | 82% | 1018.4 hPa | 0 mm | - | - | - |
| 1788251778 | 16.11° C | 82% | 1018.4 hPa | 0 mm | - | - | - |
| 1788251478 | 16.67° C | 82% | 1018.3 hPa | 0 mm | - | - | - |
| 1788251177 | 16.67° C | 83% | 1018.3 hPa | 0 mm | - | - | - |
| 1788250877 | 16.67° C | 84% | 1018.1 hPa | 0 mm | - | - | - |
| 1788250577 | 16.67° C | 84% | 1018 hPa | 0 mm | - | - | - |
| 1788250277 | 17.22° C | 85% | 1017.9 hPa | 0 mm | - | - | - |
| 1788249976 | 17.22° C | 87% | 1017.9 hPa | 0 mm | - | - | - |
| 1788249376 | 17.22° C | 89% | 1017.8 hPa | 0 mm | - | - | - |
| 1788249075 | 16.67° C | 89% | 1017.9 hPa | 0 mm | - | - | - |
| 1788248775 | 15.56° C | 90% | 1017.8 hPa | 0.51 mm | - | - | - |
| 1788248475 | 15.56° C | 90% | 1017.8 hPa | 0.51 mm | - | - | - |
| 1788248175 | 15° C | 90% | 1017.8 hPa | 0.51 mm | - | - | - |
| 1788247874 | 15° C | 90% | 1017.7 hPa | 0.51 mm | - | - | - |
| 1788247574 | 14.44° C | 90% | 1017.8 hPa | 0.51 mm | - | - | - |
| 1788247274 | 14.44° C | 90% | 1017.8 hPa | 0.51 mm | - | - | - |
| 1788246973 | 13.89° C | 90% | 1017.7 hPa | 0.51 mm | - | - | - |
| 1788246373 | 13.89° C | 91% | 1017.8 hPa | 0.51 mm | - | - | - |
| 1788246073 | 13.89° C | 91% | 1017.7 hPa | 0.51 mm | - | - | - |
| 1788245772 | 13.89° C | 90% | 1017.7 hPa | 0.51 mm | - | - | - |
| 1788245472 | 13.89° C | 91% | 1017.7 hPa | 0 mm | - | - | - |
| 1788245172 | 13.89° C | 90% | 1017.6 hPa | 0 mm | - | - | - |
| 1788244871 | 13.33° C | 91% | 1017.6 hPa | 0 mm | - | - | - |
| 1788244571 | 13.33° C | 91% | 1017.5 hPa | 0 mm | - | - | - |
| 1788244271 | 12.78° C | 90% | 1017.5 hPa | 0 mm | - | - | - |
* Rain latest hour (hover to see other rain measurements)
** Current wind speed in m/s (hover to see current wind gust speed)